Back to catalog

CZ-6A DEB

AlivePO
NORAD 54275·DEBRIS·🇨🇳 China

Launched Nov 11, 2022 from Taiyuan Satellite Launch Center

Loading…

Next Passes (next 24 hours)

TLE

FreshSource: Space-Track

Epoch: Sep 14, 2026, 05:53 UTC

1 54275U 22151S   26257.24514792  .00006330  00000-0  94074-3 0  9999
2 54275  98.8210   6.5692 0073698   2.7593 357.4004 14.73540551203317

Track CZ-6A DEB in real time with AllMySat

Download on the App Store